Regional Weather Roundup
Issued by NWS Wakefield, VA

Home | Current Version | Previous Version | Graphics & Text | Print | Product List | Glossary Off
Versions: 1 2 3 4 5 6 7 8 9 10 11 12 13 14 15 16 17 18 19 20 21 22 23 24 25 26 27 28 29 30 31 32 33 34 35 36 37 38 39 40 41 42 43 44 45 46 47 48 49 50

000
ASUS41 KAKQ 221010
RWRAKQ

REGIONAL WEATHER ROUNDUP
NATIONAL WEATHER SERVICE WAKEFIELD VA
500 AM EST SAT NOV 22 2014

Note: "fair" indicates few or no clouds below 12,000 feet with no
significant weather and/or obstructions to visibility. * = Denotes
station may not report precipitation (e.g., rain,snow,etc.),
thunder or fog.

VAZ042-051-052>054-056-221100-
NORTHERN VIRGINIA

CITY           SKY/WX    TMP DP  RH WIND       PRES   REMARKS
WASH NATIONAL  CLEAR     27  17  66 S5        30.55F
DULLES         CLEAR     17  12  80 CALM      30.52F
FORT BELVOIR   CLEAR     18  15  90 CALM      30.55F
QUANTICO       CLEAR     22  16  78 NW7       30.56F
FREDERICKSBRG* CLEAR     19  16  86 CALM      30.55S
STAFFORD*      CLEAR     15  15 100 CALM      30.58F
WARRENTON      CLEAR     14  14 100 CALM      30.53S
CULPEPER*      CLEAR     14  12  92 CALM      30.53S
MANASSAS*      CLEAR     16  14  93 CALM      30.53F
LEESBURG*      PTCLDY    19  18  93 CALM      30.52F
WINCHESTER     CLEAR     19  10  68 CALM      30.46F
FRONT ROYAL*   MOSUNNY   16  12  86 CALM      30.47S
LURAY*         MOSUNNY   18  16  93 CALM      30.46S
$$

VAZ048-049-060>072-079>083-221100-
CENTRAL AND SOUTH CENTRAL VIRGINIA

CITY           SKY/WX    TMP DP  RH WIND       PRES   REMARKS
RICHMOND       CLEAR     23  14  68 CALM      30.55S
CHESTERFIELD*  MOSUNNY   18   3  53 CALM      30.55S
PETERSBURG*    PTCLDY    19  17  94 CALM      30.56S
HANOVER        CLEAR     19  16  88 CALM      30.56S
TAPPAHANNOCK*  CLEAR     19  14  82 CALM      30.55S
QUINTON*       FAIR      19  17  90 CALM      30.56R
CHARLOTTSVILLE PTCLDY    20  11  68 W5        30.50F
GORDONSVILLE*  MOSUNNY   15  12  87 CALM      30.51S
ORANGE*        CLEAR     19  14  79 CALM      30.53S
LOUISA*        PTCLDY    18  12  79 CALM      30.51S
BUMPASS*       FAIR      18  11  73 CALM      30.53F
FARMVILLE*     PTCLDY    17  13  86 CALM      30.53S
CREWE*         SUNNY     17  15  90 CALM      30.53F
FORT PICKETT*  SUNNY     24  14  67 CALM      30.53F
LUNENBURG*     SUNNY     22  16  79 CALM      30.53S
CHASE CITY*    FAIR      24  21  89 CALM      30.54R
CLARKSVILLE*   FAIR      21  19  93 CALM      30.54R
SOUTH HILL*    CLEAR     20  15  80 CALM      30.60R
LAWRENCEVILLE* SUNNY     22  18  85 CALM      30.54S
$$

VAZ088>098-221100-
SOUTHEAST VIRGINIA

CITY           SKY/WX    TMP DP  RH WIND       PRES   REMARKS
NORFOLK        CLEAR     28  22  78 SW3       30.55F
VIRGINIA BEACH CLEAR     24  19  81 SW3       30.55F
NORFOLK NAVAL  CLEAR     29  22  75 CALM      30.56F
WEST POINT*    CLEAR     21  17  84 CALM      30.57S
SALUDA*        FAIR      22  17  80 CALM      30.54F
NEWPORT NEWS   MIX PCPN  24  18  77 CALM      30.55F
LANGLEY AFB    CLEAR     25  22  87 SW3       30.56F
FORT EUSTIS    CLEAR     25  20  83 CALM      30.54S
WILLIAMSBURG*  CLEAR     27  23  86 CALM      30.57R
HR EXEC AP*    SUNNY     16  12  86 CALM      30.57F
FRANKLIN*      CLEAR     19  18  93 CALM      30.56S
WAKEFIELD      CLEAR     20  16  84 CALM      30.56S
$$

VAZ020-022-025-037-045-221100-
WEST CENTRAL AND SOUTHWEST VIRGINIA

CITY           SKY/WX    TMP DP  RH WIND       PRES   REMARKS
STAUNTON*      PTCLDY    16  10  75 CALM      30.47F
WAYNESBORO*    MOSUNNY   18   8  65 CALM      30.44F
HOT SPRINGS VA PTCLDY    32 -13  13 SW14      30.32S WCI  22
LYNCHBURG      PTCLDY    19  11  70 CALM      30.52S
DANVILLE       CLEAR     21  16  81 SW3       30.55R
SOUTH BOSTON*  SUNNY     17  15  90 CALM      30.54F
MARTINSVILLE   CLEAR     17  16  96 CALM      30.55S
ROANOKE        CLEAR     23  13  65 CALM      30.51F
BLACKSBURG     PTCLDY    18  16  93 CALM      30.46S
DUBLIN*        PTCLDY    20  13  75 CALM      30.46S
MARION*        FAIR      21  12  66 CALM      30.44F
HILLSVILLE*    PTCLDY    28   9  44 S6        30.42S
RICHLANDS*     SUNNY     37   1  21 CALM      30.38S
WISE*          CLEAR     34   9  35 SW5       30.38S
ABINGDON*      CLEAR     29  12  47 E6        30.41S
$$

MDZ021>025-VAZ099-100-221100-
SOUTHERN MARYLAND AND THE DELMARVA PENINSULA

CITY           SKY/WX    TMP DP  RH WIND       PRES   REMARKS
PATUXENT RIVER CLEAR     19  12  74 SW3       30.55S
BAY BRIDGE APT   N/A     27  21  80 CALM      30.54S
LEONARDTOWN    CLEAR     21  16  79 CALM      30.56S
DOVER          CLEAR     22  15  74 S3        30.52F
GEORGETOWN     CLEAR     21  14  74 CALM      30.56F
EASTON         CLEAR     24  18  80 CALM      30.58R
CAMBRIDGE      CLEAR     23  19  86 CALM      30.55S
SALISBURY      CLEAR     19  13  77 CALM      30.55F
OCEAN CITY     CLEAR     18  13  80 CALM      30.56S
WALLOPS ISLAND CLEAR     21  15  78 CALM      30.56F
ACCOMACK*      CLEAR     23  16  74 E3        30.55S
$$

NCZ012>017-030>032-221100-
NORTH CENTRAL AND EASTERN NORTH CAROLINA

CITY           SKY/WX    TMP DP  RH WIND       PRES   REMARKS
ROANOKE RAPIDS SUNNY     21  19  93 CALM      30.56R
RALEIGH        CLEAR     26  16  65 CALM      30.55S
ELIZABETH CITY PTCLDY    26  19  74 CALM      30.56S
AHOSKIE*       CLEAR     20  17  88 CALM      30.57R
EDENTON*         N/A     24  20  86 CALM      30.56S
CURRITUCK*     PTCLDY    27  22  80 CALM      30.56F
KILL DEVIL HLS PTCLDY    35  30  82 W3        30.53S
MANTEO         PTCLDY    33  29  86 CALM      30.55S
CAPE HATTERAS  CLEAR     40  32  73 N6        30.53S
TARBORO*       SUNNY     19  17  93 CALM      30.57S
GOLDSBORO      CLEAR     25  20  80 CALM      30.54S
WASHINGTON     CLEAR     23  19  85 CALM      30.56S
GREENVILLE     CLEAR     23  21  93 CALM      30.55S
NEW BERN       CLEAR     27  21  78 CALM      30.57S
WILMINGTON     CLEAR     29  22  75 NE7       30.54R
$$

VAZ048-221100-
ELSEWHERE

CITY           SKY/WX    TMP DP  RH WIND       PRES   REMARKS
HARRISBURG PA  CLEAR     17  12  80 CALM      30.50S
BALTIMORE      CLEAR     20  14  77 CALM      30.52F
ANNAPOLIS      CLEAR     26  15  63 CALM      30.53F
ANDREWS AFB    CLEAR     19  13  79 S3        30.53S
PHILADELPHIA   CLEAR     25  12  58 W7        30.53F
WILDWOOD NJ*   CLEAR     21  14  73 CALM      30.54S
HENDERSON NC   CLEAR     23  18  81 CALM      30.54R
GREENSBORO     CLEAR     26  14  60 NW3       30.51S
ROCKY MOUNT    CLEAR     21  17  84 CALM      30.55F
$$

VAZ100-221100-
MARINE

STATION/POSITION TIME  TEMP    WIND        PRES    WAVE   SWELL
                       AIR SEA DIR/SP/G            HT/PER HT/PER
                 (UTC) (F)     (DEG/KT/KT) (MB)    (FT/S) (FT/S)
CAPE MAY NJ      1000   28 43   90/  2/  3 1034.0R
LEWES DE         1000   26 45  210/  4/  5 1034.5S
15NM E FENWICK I 1000   37 53              1034.2R   1/ 5
OCEAN-CITY-INLET 1000   29 44  300/  3/  5 1034.4R
WACHAPREAGUE VA  1000   26 40   CALM  /  1 1034.6F
THOMAS POINT MD  1000   32 46  270/  5/  6 1035.2F
GOOSES REEF MD   1000   36     230/  2/  6 1034.7F
COVE POINT MD    1000   33     260/  5/  6 1034.2R
SOLOMONS ISLAND  1000      47                N/A
BISHOPS HEAD MD  1000   35 38  130/  4/  5 1033.9S
PINEY POINT MD   1000           10/  1/  2   N/A
POTOMAC MD       1000   37     230/  4/  6 1033.5S
CAMBRIDGE MD     1000   26 42  180/  1/  4 1034.3F
LEWISETTA VA     1000   29 41  270/  3/  3 1033.9F
RAPPAHANNOCK LGT 1000           90/  8/  8 1034.7F
STINGRAY PT      1000   38     150/  4/  6 1034.5F
YORK RVR RNG VA  1000   39     140/  5/  8 1034.0R
YORKTOWN VA      1000   31 49  230/  2/  3 1034.2F
JAMESTOWN VA     1000   30     270/  4/  6   N/A
DOMINION TERM VA 1000   37     220/  5/  7 1034.4F
KIPTOPEKE VA     1000      51   80/  5/  6   N/A
CHES BAY BRIDGE  1000   39 49  210/  5/  7 1034.0F
CAPE HENRY VA    1000   37      CALM  /  1 1033.1F
CHESAPEAKE LGHT  0900   40      20/  8/  9 1035.2S
WILLOUBY STN VA  1000   37      30/  3/  4 1033.0F
S CRANEY ISL VA  1000          190/  2/  3 1034.4F
CAPE HENRY BUOY  1000      54                N/A     2/ 5
1ST LANDING BUOY 1000   40      60/  2/  4 1034.0F
CAPE CHARLES BUO 1000      54                N/A     2/ 4   2/ 5
64NM E OF VA BCH 1000   43 60  360/  6/  8 1034.1R   3/ 6   3/ 6
DUCK PIER NC     1000   39 54  320/  8/  9 1033.5S
44100 DUCK FRF   1000      58                N/A     3/ 7
44056 DUCK FRF   1000      55                N/A     3/ 5
OREGON INLET NC  1000   42 52   20/  5/  6 1034.0F
HATTERAS NC      1000   44 50   10/ 10/ 13 1034.1R
DIAMOND SHLS NC  1000   49      20/ 10/ 16 1033.3F   5/10   5/10



USA.gov is the U.S. government's official web portal to all federal, state and local government web resources and services.